Location: Unspecified
(0.0000°N, 0.0000°E)
Time: 13:20:28
(UTC+01:00)

NATO 3D Rocket - Visible Passes

Search period start: 08 February 2016 00:00
Search period end: 18 February 2016 00:00
Orbit: 670 x 2296 km, 21.5° (Epoch: 06 February)

Date Brightness Start Highest point End Pass type
(mag) Time Alt. Az. Time Alt. Az. Time Alt. Az.
08 Feb 6.5 03:52:15 35° NNE 03:52:15 35° NNE 04:01:28 10° ENE visible
08 Feb 5.8 05:47:46 23° NW 05:57:12 61° NNE 06:08:01 10° E visible
08 Feb 4.9 20:22:42 10° W 20:28:59 49° NNW 20:34:30 23° NE visible
08 Feb 6.5 22:27:18 10° WNW 22:30:02 20° NW 22:30:02 20° NW visible
09 Feb 7.2 02:58:32 19° ENE 02:58:32 19° ENE 03:02:15 10° ENE visible
09 Feb 6.0 04:54:04 42° NNW 04:58:13 52° NNE 05:10:01 10° E visible
09 Feb 4.4 19:25:55 10° W 19:31:31 61° NNW 19:39:28 10° ENE visible
09 Feb 5.7 21:29:55 10° WNW 21:36:24 30° N 21:36:25 30° N visible
10 Feb 6.2 04:00:22 44° NNE 04:00:22 44° NNE 04:11:28 10° E visible
10 Feb 5.7 05:55:54 23° WNW 06:06:09 79° NNE 06:17:26 10° ESE visible
10 Feb 5.4 20:32:47 10° WNW 20:38:30 33° NNW 20:42:48 21° NNE visible
10 Feb 6.9 22:37:48 10° NW 22:38:21 12° NW 22:38:21 12° NW visible
11 Feb 7.0 03:06:40 26° ENE 03:06:40 26° ENE 03:12:20 10° E visible
11 Feb 5.8 05:02:12 46° NW 05:07:13 67° NNE 05:19:34 10° ESE visible
11 Feb 5.0 19:35:48 10° W 19:40:58 38° NNW 19:47:57 10° NE visible
11 Feb 6.1 21:40:28 10° NW 21:44:45 22° NNW 21:44:45 22° NNW visible
12 Feb 5.9 04:08:32 57° NNE 04:08:32 57° NNE 04:21:09 10° E visible
12 Feb 5.7 06:04:04 21° WNW 06:14:58 82° SSW 06:26:35 10° ESE visible
12 Feb 5.8 20:43:15 10° WNW 20:48:13 23° N 20:51:09 18° NNE visible
13 Feb 6.7 03:14:52 34° ENE 03:14:52 34° ENE 03:22:10 10° E visible
13 Feb 5.7 05:10:24 46° WNW 05:16:00 85° NNE 05:28:48 10° ESE visible
13 Feb 5.5 19:46:07 10° WNW 19:50:36 24° NNW 19:56:14 10° NE visible
13 Feb 6.4 21:51:10 10° NW 21:53:05 15° NNW 21:53:05 15° NNW visible
14 Feb 7.5 02:21:13 14° E 02:21:13 14° E 02:22:37 10° E visible
14 Feb 5.7 04:16:45 72° NNE 04:16:54 72° NNE 04:30:30 10° ESE visible
14 Feb 5.9 06:12:17 18° W 06:23:43 64° SSW 06:35:29 10° SE visible
14 Feb 6.0 20:54:06 10° NW 20:58:03 16° N 20:59:30 15° N visible
15 Feb 6.4 03:23:05 42° E 03:23:05 42° E 03:31:40 10° E visible
15 Feb 5.7 05:18:37 43° W 05:24:43 77° SSW 05:37:45 10° ESE visible
15 Feb 5.8 19:56:58 10° NW 20:00:20 16° N 20:04:19 10° NNE visible
16 Feb 7.3 02:29:25 18° E 02:29:25 18° E 02:32:18 10° E visible
16 Feb 5.6 04:24:57 84° WNW 04:25:37 90° SSW 04:39:32 10° ESE visible
16 Feb 6.2 06:20:28 14° W 06:32:34 50° SSW 06:44:17 10° SE visible
16 Feb 6.2 21:05:11 10° NNW 21:07:51 13° N 21:07:51 13° N visible
17 Feb 6.2 03:31:17 51° E 03:31:17 51° E 03:40:49 10° ESE visible
17 Feb 5.9 05:26:49 36° W 05:33:30 60° SSW 05:46:30 10° SE visible
17 Feb 6.0 20:08:38 10° NNW 20:10:13 11° N 20:11:54 10° NNE visible
